Ft Lauderdale, FL

2:19 PM EDT on June 26, 2017 (GMT -0400)
Fort Lauderdale-Hollywood International

Weather History for KFLL - September, 2013

Change the Weather History Date:

Monday, September 2, 2013

  Actual Average Record
Temperature  
Mean Temperature 82 °F 84 °F  
Max Temperature 89 °F 90 °F 94 °F (1924)
Min Temperature 75 °F 78 °F 70 °F (1934)
Degree Days  
Heating Degree Days 0 0  
Month to date heating degree days 0 0  
Since 1 July heating degree days 0 0  
Cooling Degree Days 17 19  
Month to date cooling degree days 33 38  
Year to date cooling degree days 3080 3204  
Growing Degree Days 32 (Base 50)    
Moisture  
Dew Point 74 °F    
Average Humidity 80    
Maximum Humidity 94    
Minimum Humidity 65    
Precipitation  
Precipitation 0.12 in 0.29 in 2.30 in (1977)
Month to date precipitation 0.15 0.60  
Year to date precipitation 57.19 41.67  
Snow  
Snow 0.00 in - - ()
Month to date snowfall 0.0  
Since 1 July snowfall 0.0  
Since 1 September snowfall 0.0  
Snow Depth 0.00 in    
Sea Level Pressure  
Sea Level Pressure 30.00 in    
Wind  
Wind Speed 3 mph (West)    
Max Wind Speed 23 mph    
Max Gust Speed 33 mph    
Visibility 9 miles    
Events Rain , Thunderstorm    
T = Trace of Precipitation, MM = Missing Value Source: NWS Daily Summary

Daily Weather History Graph

Daily Weather History Graph

Search for Another Location

Airport or City:

Trip Planner

Search our weather history database for the weather conditions in past years. The results will help you decide how hot, cold, wet, or windy it might be!

Date:

Astronomy

Sep. 02, 2013 Rise Set
Actual Time 7:01 AM EDT 7:38 PM EDT
Civil Twilight 6:37 AM EDT 8:02 PM EDT
Nautical Twilight 6:10 AM EDT 8:29 PM EDT
Astronomical Twilight 5:42 AM EDT 8:57 PM EDT
Moon 4:26 AM EDT (9/2) 5:44 PM EDT (9/2)
Length of Visible Light 13h 24m
Length of Day
12h 37m
Waning Crescent, 8% of the Moon is Illuminated
Sep 2
Waning Crescent
Sep 5
New
Sep 12
First Quarter
Sep 19
Full
Sep 26
Last Quarter

Hourly Weather History & Observations

Time (EDT) Temp. Heat Index Dew Point Humidity Pressure Visibility Wind Dir Wind Speed Gust Speed Precip Events Conditions
12:53 AM 78.1 °F - 75.9 °F 93% 29.99 in 10.0 mi Calm Calm - N/A   Partly Cloudy
1:53 AM 78.1 °F - 75.9 °F 93% 29.98 in 10.0 mi Calm Calm - N/A   Partly Cloudy
2:53 AM 77.0 °F - 75.9 °F 96% 29.96 in 10.0 mi Calm Calm - N/A   Clear
3:53 AM 77.0 °F - 75.9 °F 96% 29.96 in 10.0 mi Calm Calm - N/A   Clear
4:53 AM 77.0 °F - 75.0 °F 94% 29.95 in 10.0 mi Calm Calm - N/A   Clear
5:53 AM 77.0 °F - 75.0 °F 94% 29.96 in 10.0 mi Calm Calm - N/A   Partly Cloudy
6:53 AM 78.1 °F - 75.9 °F 93% 29.98 in 10.0 mi Calm Calm - N/A   Partly Cloudy
7:53 AM 79.0 °F - 75.9 °F 90% 30.00 in 10.0 mi Calm Calm - N/A   Partly Cloudy
8:53 AM 82.0 °F 89.4 °F 75.9 °F 82% 30.01 in 10.0 mi Calm Calm - N/A   Partly Cloudy
9:53 AM 84.0 °F 92.6 °F 75.9 °F 76% 30.02 in 10.0 mi Calm Calm - N/A   Scattered Clouds
10:53 AM 86.0 °F 93.0 °F 73.0 °F 65% 30.03 in 10.0 mi SW 3.5 mph - N/A   Clear
11:53 AM 87.1 °F 97.3 °F 75.9 °F 69% 30.03 in 10.0 mi ESE 8.1 mph - N/A   Overcast
12:53 PM 88.0 °F 97.5 °F 75.0 °F 65% 30.02 in 10.0 mi SSE 6.9 mph - N/A   Scattered Clouds
1:53 PM 87.1 °F 96.3 °F 75.0 °F 67% 30.01 in 10.0 mi SE 12.7 mph - N/A   Scattered Clouds
2:34 PM 80.6 °F 84.6 °F 71.6 °F 74% 30.03 in 10.0 mi WSW 17.3 mph 33.4 mph N/A Thunderstorm Thunderstorm
2:53 PM 75.0 °F - 73.0 °F 94% 30.04 in 2.5 mi West 20.7 mph 26.5 mph 0.01 in Rain , Thunderstorm Heavy Thunderstorms and Rain
2:57 PM 75.2 °F - 71.6 °F 89% 30.03 in 4.0 mi West 13.8 mph 26.5 mph 0.01 in Rain , Thunderstorm Light Thunderstorms and Rain
3:04 PM 75.2 °F - 73.4 °F 94% 30.03 in 6.0 mi WNW 13.8 mph - 0.03 in Rain , Thunderstorm Light Thunderstorms and Rain
3:40 PM 75.2 °F - 73.4 °F 94% 30.00 in 10.0 mi NNW 10.4 mph - 0.10 in   Scattered Clouds
3:53 PM 75.0 °F - 72.0 °F 90% 30.01 in 10.0 mi NNW 10.4 mph - 0.10 in   Scattered Clouds
4:53 PM 77.0 °F - 73.9 °F 90% 29.99 in 10.0 mi NW 6.9 mph - 0.01 in   Scattered Clouds
5:53 PM 78.1 °F - 73.9 °F 87% 29.98 in 10.0 mi NNW 5.8 mph - N/A   Partly Cloudy
6:53 PM 78.1 °F - 73.9 °F 87% 29.96 in 10.0 mi Calm Calm - N/A   Scattered Clouds
7:53 PM 77.0 °F - 73.0 °F 88% 29.97 in 10.0 mi Calm Calm - N/A   Partly Cloudy
8:53 PM 78.1 °F - 72.0 °F 81% 29.99 in 10.0 mi SSE 3.5 mph - N/A   Clear
9:53 PM 78.1 °F - 72.0 °F 81% 30.00 in 10.0 mi Calm Calm - N/A   Clear
10:53 PM 77.0 °F - 73.0 °F 88% 29.99 in 10.0 mi Calm Calm - N/A   Clear
11:53 PM 77.0 °F - 73.9 °F 90% 29.99 in 10.0 mi Calm Calm - N/A   Clear